TimeCDT,TemperatureF,Dew PointF,Humidity,Sea Level PressureIn,VisibilityMPH,Wind Direction,Wind SpeedMPH,Gust SpeedMPH,PrecipitationIn,Events,Conditions,WindDirDegrees,DateUTC
12:13 AM,44.6,33.8,66,30.01,10.0,West,13.8,-,N/A,,Scattered Clouds,270,2013-04-04 05:13:00
12:33 AM,42.8,33.8,70,30.02,10.0,WNW,10.4,-,N/A,,Clear,300,2013-04-04 05:33:00
12:53 AM,39.2,33.8,81,30.02,10.0,WNW,10.4,-,N/A,,Clear,290,2013-04-04 05:53:00
1:13 AM,39.2,33.8,81,30.02,10.0,WNW,5.8,-,N/A,,Clear,290,2013-04-04 06:13:00
1:33 AM,37.4,33.8,87,30.04,7.0,West,8.1,-,N/A,,Clear,280,2013-04-04 06:33:00
1:54 AM,37.4,33.8,87,30.04,7.0,WNW,6.9,-,N/A,,Clear,290,2013-04-04 06:54:00
2:13 AM,37.4,33.8,87,30.04,7.0,WNW,9.2,-,N/A,,Clear,300,2013-04-04 07:13:00
2:33 AM,35.6,32.0,87,30.04,10.0,WNW,9.2,-,N/A,,Clear,300,2013-04-04 07:33:00
2:53 AM,35.6,30.2,81,30.04,10.0,NW,8.1,-,N/A,,Clear,310,2013-04-04 07:53:00
3:13 AM,35.6,30.2,81,30.04,10.0,NW,9.2,-,N/A,,Clear,320,2013-04-04 08:13:00
3:33 AM,35.6,30.2,81,30.05,10.0,NW,9.2,-,N/A,,Clear,310,2013-04-04 08:33:00
3:53 AM,35.6,28.4,75,30.05,10.0,NW,9.2,-,N/A,,Clear,320,2013-04-04 08:53:00
4:14 AM,35.6,28.4,75,30.05,10.0,NNW,9.2,-,N/A,,Clear,330,2013-04-04 09:14:00
4:34 AM,35.6,28.4,75,30.06,10.0,NW,9.2,-,N/A,,Clear,310,2013-04-04 09:34:00
4:53 AM,35.6,28.4,75,30.06,10.0,WNW,9.2,-,N/A,,Clear,300,2013-04-04 09:53:00
5:13 AM,35.6,28.4,75,30.06,10.0,NW,9.2,-,N/A,,Clear,320,2013-04-04 10:13:00
5:33 AM,33.8,28.4,81,30.07,10.0,NW,9.2,-,N/A,,Clear,310,2013-04-04 10:33:00
5:53 AM,33.8,28.4,81,30.08,10.0,WNW,8.1,-,N/A,,Clear,290,2013-04-04 10:53:00
6:13 AM,33.8,28.4,81,30.08,10.0,NW,9.2,-,N/A,,Clear,310,2013-04-04 11:13:00
6:33 AM,33.8,30.2,87,30.08,10.0,NW,10.4,-,N/A,,Clear,310,2013-04-04 11:33:00
6:53 AM,33.8,30.2,87,30.09,10.0,NW,9.2,-,N/A,,Clear,310,2013-04-04 11:53:00
7:13 AM,33.8,28.4,81,30.10,10.0,NW,9.2,-,N/A,,Clear,320,2013-04-04 12:13:00
7:33 AM,33.8,28.4,81,30.10,10.0,NNW,10.4,-,N/A,,Clear,330,2013-04-04 12:33:00
7:53 AM,33.8,28.4,81,30.11,10.0,NNW,10.4,-,N/A,,Clear,330,2013-04-04 12:53:00
8:13 AM,33.8,28.4,81,30.12,10.0,NNW,13.8,18.4,N/A,,Clear,330,2013-04-04 13:13:00
8:33 AM,35.6,28.4,75,30.13,10.0,NNW,13.8,17.3,N/A,,Clear,330,2013-04-04 13:33:00
8:53 AM,35.6,28.4,75,30.13,10.0,NNW,18.4,-,N/A,,Clear,340,2013-04-04 13:53:00
9:13 AM,35.6,28.4,75,30.14,10.0,North,19.6,-,N/A,,Clear,350,2013-04-04 14:13:00
9:33 AM,35.6,28.4,75,30.14,10.0,NNW,18.4,21.9,N/A,,Clear,340,2013-04-04 14:33:00
9:53 AM,35.6,28.4,75,30.14,10.0,NNW,19.6,23.0,N/A,,Clear,340,2013-04-04 14:53:00
10:13 AM,35.6,28.4,75,30.15,10.0,NNW,18.4,-,N/A,,Clear,340,2013-04-04 15:13:00
10:33 AM,35.6,28.4,75,30.16,10.0,NNW,13.8,-,N/A,,Clear,330,2013-04-04 15:33:00
10:53 AM,35.6,28.4,75,30.16,10.0,NNW,16.1,-,N/A,,Clear,330,2013-04-04 15:53:00
11:33 AM,37.4,28.4,70,30.18,10.0,North,16.1,20.7,N/A,,Clear,350,2013-04-04 16:33:00
11:53 AM,37.4,28.4,70,30.18,10.0,North,17.3,-,N/A,,Clear,350,2013-04-04 16:53:00
12:13 PM,39.2,28.4,65,30.18,10.0,NNW,15.0,18.4,N/A,,Clear,340,2013-04-04 17:13:00
12:33 PM,39.2,28.4,65,30.19,10.0,NNW,13.8,23.0,N/A,,Clear,340,2013-04-04 17:33:00
12:53 PM,39.2,28.4,65,30.19,10.0,NNW,16.1,-,N/A,,Clear,340,2013-04-04 17:53:00
1:13 PM,39.2,28.4,65,30.19,10.0,NNW,15.0,-,N/A,,Scattered Clouds,340,2013-04-04 18:13:00
1:33 PM,39.2,28.4,65,30.19,10.0,North,16.1,-,N/A,,Scattered Clouds,350,2013-04-04 18:33:00
1:53 PM,39.2,28.4,65,30.18,10.0,North,17.3,-,N/A,,Scattered Clouds,350,2013-04-04 18:53:00
2:13 PM,39.2,28.4,65,30.18,10.0,NNW,15.0,23.0,N/A,,Clear,340,2013-04-04 19:13:00
2:34 PM,39.2,28.4,65,30.19,10.0,NNW,16.1,-,N/A,,Clear,340,2013-04-04 19:34:00
2:54 PM,39.2,28.4,65,30.19,10.0,NNW,17.3,-,N/A,,Clear,340,2013-04-04 19:54:00
3:13 PM,37.4,28.4,70,30.19,10.0,NNW,18.4,21.9,N/A,,Clear,340,2013-04-04 20:13:00
3:33 PM,37.4,28.4,70,30.19,10.0,NNW,17.3,-,N/A,,Clear,330,2013-04-04 20:33:00
3:53 PM,37.4,28.4,70,30.19,10.0,North,21.9,-,N/A,,Clear,350,2013-04-04 20:53:00
4:14 PM,37.4,26.6,65,30.18,10.0,NNW,20.7,-,N/A,,Clear,340,2013-04-04 21:14:00
4:33 PM,37.4,26.6,65,30.18,10.0,North,21.9,26.5,N/A,,Clear,350,2013-04-04 21:33:00
4:53 PM,37.4,26.6,65,30.19,10.0,NNW,19.6,25.3,N/A,,Clear,340,2013-04-04 21:53:00
5:13 PM,37.4,26.6,65,30.19,10.0,NNW,20.7,27.6,N/A,,Clear,340,2013-04-04 22:13:00
5:33 PM,37.4,26.6,65,30.20,10.0,NNW,20.7,26.5,N/A,,Clear,340,2013-04-04 22:33:00
5:53 PM,35.6,26.6,70,30.20,10.0,North,20.7,27.6,N/A,,Clear,350,2013-04-04 22:53:00
6:13 PM,35.6,24.8,65,30.20,10.0,North,20.7,26.5,N/A,,Clear,350,2013-04-04 23:13:00
6:34 PM,35.6,24.8,65,30.20,10.0,North,18.4,24.2,N/A,,Clear,350,2013-04-04 23:34:00
6:53 PM,33.8,24.8,70,30.20,10.0,North,23.0,-,N/A,,Clear,350,2013-04-04 23:53:00
7:13 PM,33.8,24.8,70,30.20,10.0,NNW,15.0,19.6,N/A,,Clear,340,2013-04-05 00:13:00
7:33 PM,33.8,24.8,70,30.20,10.0,NNW,15.0,19.6,N/A,,Clear,340,2013-04-05 00:33:00
7:53 PM,32.0,24.8,75,30.20,10.0,North,11.5,-,N/A,,Clear,350,2013-04-05 00:53:00
8:13 PM,30.2,23.0,75,30.20,10.0,North,12.7,-,N/A,,Clear,350,2013-04-05 01:13:00
8:33 PM,30.2,23.0,75,30.21,10.0,NNW,12.7,-,N/A,,Clear,340,2013-04-05 01:33:00
8:53 PM,30.2,24.8,80,30.21,10.0,NNW,11.5,-,N/A,,Clear,340,2013-04-05 01:53:00
9:13 PM,30.2,23.0,75,30.21,10.0,NNW,10.4,-,N/A,,Clear,340,2013-04-05 02:13:00
9:34 PM,28.4,23.0,80,30.21,10.0,North,10.4,-,N/A,,Clear,350,2013-04-05 02:34:00
9:53 PM,28.4,24.8,86,30.22,10.0,NNW,11.5,-,N/A,,Clear,330,2013-04-05 02:53:00
10:13 PM,28.4,23.0,80,30.23,10.0,NNW,13.8,-,N/A,,Clear,340,2013-04-05 03:13:00
10:33 PM,28.4,23.0,80,30.23,10.0,NNW,11.5,-,N/A,,Clear,340,2013-04-05 03:33:00
10:53 PM,28.4,23.0,80,30.23,10.0,North,10.4,-,N/A,,Clear,350,2013-04-05 03:53:00
11:13 PM,28.4,23.0,80,30.23,10.0,NNW,9.2,-,N/A,,Clear,340,2013-04-05 04:13:00
11:34 PM,26.6,23.0,86,30.23,10.0,NNW,8.1,-,N/A,,Clear,330,2013-04-05 04:34:00
11:53 PM,26.6,21.2,80,30.24,10.0,NNW,8.1,-,N/A,,Clear,330,2013-04-05 04:53:00